Location: Astronomy Club of Akron Observatory
(40.9700°N, 81.5606°W)
Time: 06:46:55
(UTC-04:00)

Daily predictions for brighter satellites

Satellite Brightness Start Highest point End
(mag) Time Altitude Azimuth Time Altitude Azimuth Time Altitude Azimuth
Cosmos 1538 Rocket 4.0 21:13:17 10° SSW 21:18:26 86° ESE 21:23:38 10° NNE
ISS -2.0 21:20:12 10° SSE 21:21:55 14° SE 21:23:38 10° E
BREEZE-M DEB (TANK) 4.3 21:18:34 10° WNW 21:22:35 77° SSW 21:36:46 10° ESE
USA 186 2.5 21:19:43 10° S 21:22:54 54° W 21:26:02 10° NNW
Cosmos 1666 4.0 21:20:48 10° NNE 21:23:50 23° ENE 21:26:51 10° SE
OAO 2 Rocket 4.0 21:21:25 10° SW 21:25:50 34° SSE 21:30:21 10° ESE
CZ-4B DEB 4.5 21:22:36 10° SSE 21:26:07 86° ENE 21:29:40 10° N
Cosmos 2315 Rocket 4.2 21:20:30 10° S 21:26:45 83° W 21:33:07 10° N
Cosmos 923 Rocket 4.3 21:22:01 10° S 21:27:04 46° ESE 21:32:09 10° NNE
CZ-3A R/B 2.7 21:28:44 10° S 21:31:41 14° SSE 21:33:08 12° ESE
Cosmos 2184 Rocket 4.4 21:26:16 10° N 21:32:24 49° ENE 21:38:28 10° SSE
Cosmos 1536 Rocket 3.5 21:28:14 10° S 21:32:31 69° E 21:36:50 10° NNE
Cosmos 2074 Rocket 4.3 21:26:34 10° N 21:32:38 50° ENE 21:38:41 10° SSE
Cosmos 1437 2.7 21:31:28 10° S 21:34:39 68° E 21:37:52 10° NNE
CZ-4B DEB 2.5 21:32:18 10° SSE 21:35:16 75° ENE 21:38:16 10° N
Helios 1A 3.1 21:31:11 10° S 21:35:24 81° WSW 21:39:39 10° NNW
Meteor 1-29 2.8 21:36:55 10° NNE 21:40:18 82° E 21:43:40 10° S
Meteor 1-19 Rocket 4.4 21:35:20 10° S 21:41:02 59° E 21:46:41 10° NNE
SJ-11-01 4.3 21:37:52 10° SSE 21:42:33 85° W 21:47:16 10° NNW
Cosmos 1656 Rocket 3.6 21:39:20 10° NNW 21:44:47 73° ENE 21:49:49 12° SSE
YAOGAN 6 2.6 21:42:06 11° SSE 21:45:23 62° ENE 21:48:52 10° N
Cosmos 2369 Rocket 4.2 21:40:57 10° NW 21:45:31 26° WSW 21:50:06 10° SSW
SAR-Lupe-4 3.8 21:42:03 10° S 21:45:36 70° WSW 21:49:12 10° NNW
ERS-1 Rocket 3.2 21:41:29 11° SSE 21:46:10 53° ENE 21:51:03 10° N
Cosmos 1818 3.9 21:44:54 10° SW 21:50:18 71° NW 21:55:47 10° NNE
MOS 1-B Rocket 4.4 21:46:03 13° SE 21:50:54 46° ENE 21:56:52 10° N
Cosmos 405 Rocket 2.6 21:47:57 10° S 21:51:40 76° E 21:55:29 10° NNE
RESURS DK-1 4.4 21:48:07 10° WSW 21:51:50 32° WNW 21:55:35 10° N
Resurs 01 Rocket 4.1 21:51:16 10° SW 21:54:34 20° W 21:57:51 10° NW
NOSS 2-2 (D) 3.5 21:51:29 10° SW 21:55:27 83° NW 22:00:01 10° NNE
H-2A R/B 3.4 21:52:51 13° ESE 21:55:54 23° ENE 21:59:45 10° NNE
Cosmos 1975 4.2 21:54:02 10° NNW 21:57:49 38° W 22:01:36 10° SSW
Cosmos 2112 Rocket 4.0 21:54:44 10° S 21:59:51 59° ESE 22:04:59 10° NNE
Cosmos 1943 Rocket 3.5 21:55:39 10° NW 22:00:43 36° WSW 22:05:43 10° S
Cosmos 1025 Rocket 3.6 21:58:34 16° SSE 22:01:32 38° E 22:05:30 10° NNE
CENTAUR R/B 3.2 21:54:10 10° NW 22:02:10 86° WSW 22:09:18 16° SSE
Cosmos 1441 Rocket 3.3 22:01:18 14° S 22:04:25 53° E 22:08:04 10° NNE
Meteor 1-13 Rocket 4.5 22:00:22 10° SSW 22:06:19 80° W 22:12:15 10° N
Nadezhda 1 Rocket 4.0 22:01:19 10° S 22:07:35 70° E 22:13:58 10° NNE
PSLV R/B 3.0 22:05:37 10° W 22:08:45 87° N 22:10:40 21° E
Helios 1B rocket 4.1 22:06:50 10° N 22:10:38 36° WNW 22:14:26 10° SW
NOAA 11 4.2 22:07:48 16° SSE 22:12:07 73° ENE 22:17:33 10° N
Cosmos 1939 Rocket 4.3 22:09:04 10° SSW 22:12:35 34° W 22:16:08 10° NNW
NOSS 2-2 (C) 4.3 22:10:21 10° SW 22:14:18 54° NW 22:18:50 10° NNE
Cosmos 2154 Rocket 4.2 22:09:48 10° N 22:16:04 57° E 22:20:26 20° SSE
COSMOS 2406 3.4 22:10:35 10° SSW 22:16:19 78° WNW 22:22:03 10° NNE
COSMOS 2455 4.1 22:11:18 10° NW 22:16:42 36° WSW 22:22:05 10° S
SL-08 RB Rocket 4.2 22:14:43 23° SE 22:17:03 43° ENE 22:21:17 10° N
ARGOS 3.3 22:13:33 20° SE 22:17:11 59° ENE 22:22:31 10° N
SL-27 R/B 2.4 22:14:28 10° SSW 22:18:06 76° ESE 22:21:47 10° NNE
Cosmos 374 Rocket 4.5 22:14:34 10° NW 22:18:17 62° WSW 22:20:28 24° SSE
Cosmos 1680 Rocket 3.7 22:18:14 10° SSW 22:23:27 72° WNW 22:28:40 10° NNE
SPOT 5 2.6 22:23:05 27° SSE 22:25:20 64° ENE 22:29:39 10° N
H-2A R/B 3.8 22:24:49 17° E 22:26:27 21° ENE 22:29:50 10° NNE
Cosmos 2056 Rocket 4.1 22:21:46 10° N 22:26:43 43° ENE 22:29:09 26° ESE
Cosmos 2082 Rocket 3.5 22:28:03 20° ESE 22:28:28 20° E 22:32:28 10° NE
Cosmos 1743 4.3 22:25:30 10° NNW 22:29:00 32° W 22:32:30 10° SSW
Cosmos 405 3.0 22:29:54 10° NNW 22:33:29 78° W 22:34:56 34° S
Terra 3.0 22:37:11 24° ESE 22:38:48 29° ENE 22:42:54 10° N
ASTEX 1 4.2 22:36:30 12° SSW 22:40:56 47° W 22:45:40 10° NNW
Meteor 2-19 Rocket 4.5 22:34:57 10° N 22:41:04 67° E 22:44:22 28° SSE
MetOp-B 4.4 22:40:01 21° S 22:43:39 65° WSW 22:48:59 10° NNW
Cosmos 2341 Rocket 4.0 22:37:52 10° N 22:44:12 69° E 22:47:39 29° SSE
Cosmos 2369 4.4 22:39:00 10° N 22:44:27 42° ENE 22:46:58 27° ESE
Tiangong 2 0.9 22:42:34 10° WSW 22:45:36 70° S 22:45:36 70° S
COSMOS 2487 4.0 22:47:21 23° ENE 22:47:21 23° ENE 22:49:23 10° NE
SPOT 1/Viking Rocket 3.5 22:44:17 32° SSE 22:46:45 77° ENE 22:51:55 10° N
Cosmos 1437 Rocket 2.6 22:44:33 10° N 22:48:23 87° E 22:49:25 47° SSE
Okean 1-7 Rocket 4.4 22:46:16 12° SSW 22:50:14 51° W 22:54:37 10° N
Okean 2 3.6 22:50:04 26° SSW 22:52:16 70° W 22:56:21 10° N
Cosmos 1697 Rocket 4.1 22:49:19 10° N 22:54:00 26° NE 22:56:25 20° E
Aureole 1 Rocket 4.5 22:53:17 10° SW 22:56:07 25° WNW 22:58:42 10° N
IGS 5A 4.2 22:56:43 35° E 22:57:20 38° ENE 23:01:13 10° N
ISS -3.5 22:54:45 10° WSW 22:58:02 67° NW 23:01:18 10° NE
Cosmos 1452 Rocket 4.5 22:54:07 10° N 22:58:56 35° ENE 23:00:34 29° E
Cosmos 2218 Rocket 4.4 22:54:34 10° N 23:00:29 47° ENE 23:02:38 34° SE
Cosmos 1892 Rocket 3.5 23:01:37 40° S 23:03:13 88° W 23:07:40 10° N
Cosmos 1371 Rocket 4.2 23:00:43 10° NNW 23:06:00 64° WSW 23:08:06 36° S
Cosmos 2228 3.0 23:02:00 10° N 23:06:17 63° E 23:06:54 55° ESE
OAO 2 Rocket 3.7 23:05:29 10° WSW 23:10:00 42° S 23:10:00 42° S
Cosmos 1602 Rocket 4.4 23:10:37 34° E 23:10:37 34° E 23:14:16 10° NNE
deb Chang Zheng 4 3.8 23:07:17 10° NNE 23:11:26 48° E 23:11:26 48° E
Cosmos 1833 Rocket 3.0 23:11:23 41° SE 23:12:03 43° ESE 23:17:21 10° NE
Cosmos 921 Rocket 3.0 23:07:37 10° NNW 23:12:08 79° ENE 23:12:53 60° SE
Cosmos 1656 4.0 23:09:25 10° NNW 23:14:44 51° ENE 23:16:17 39° ESE
Cosmos 1066 Rocket 4.1 23:15:05 46° SSE 23:16:35 65° E 23:22:07 10° NNE
Cosmos 2181 Rocket 4.1 23:13:08 26° SSW 23:16:59 79° W 23:23:20 10° N
Cosmos 1606 Rocket 4.3 23:13:22 10° NNW 23:17:30 46° W 23:18:50 34° SW
SL-19 R/B 4.1 23:16:16 10° NNE 23:21:38 67° ESE 23:22:49 51° SSE
Cosmos 1766 4.5 23:22:09 10° NNE 23:25:11 31° ENE 23:25:11 31° ENE
CZ-4 R/B 4.0 23:21:05 10° NNE 23:26:03 57° ESE 23:26:30 55° SE
Cosmos 1726 Rocket 4.4 23:24:21 10° NNW 23:28:26 42° W 23:29:30 35° SW
Meteor 1-4 Rocket 3.1 23:27:22 10° N 23:30:20 53° NNE 23:30:20 53° NNE
Cosmos 1809 Rocket 4.4 23:25:09 10° N 23:31:15 76° E 23:32:56 50° SSE
USA 267 3.3 23:25:59 10° NE 23:32:20 52° SE 23:34:02 42° S
H-2A R/B 2.8 23:33:29 32° SW 23:35:03 41° W 23:39:46 10° NNW
Cosmos 2058 Rocket 3.6 23:30:50 10° NNW 23:35:06 50° W 23:35:51 44° SW
SL-19 R/B 4.5 23:35:19 75° ESE 23:35:30 77° ENE 23:39:35 10° N
CARTOSAT-1 3.6 23:36:38 66° SW 23:36:57 70° WSW 23:41:16 10° NNW
Cosmos 1980 Rocket 3.1 23:35:47 10° N 23:41:01 36° ENE 23:42:26 32° E
SeaSat 1 3.9 23:46:39 24° ENE 23:47:57 27° NE 23:52:04 10° N
Cosmos 2322 Rocket 4.3 23:45:18 10° N 23:49:02 17° NE 23:51:42 13° E
Cosmos 864 Rocket 4.4 23:43:37 10° N 23:49:56 85° W 23:51:34 53° S
Meteor 2-16 Rocket 4.4 23:47:18 10° N 23:53:27 73° E 23:54:38 58° SE
